www.pogodaiklimat.ru

Погода и климат >> Архив погоды >> Мадагаскар >> Аэропорт Fascene


ПОГОДА в Аэропорту Fascene

  • Прогноз погоды в Аэропорту Fascene
  • Монитор погоды в Аэропорту Fascene

АРХИВ ПОГОДЫ в Аэропорту Fascene

Время (UTC), дата Ветер
(напр.,м/с)
 
Видим.   Явления Облачность Т
(С)
Тd
(С)
f
(%)
Тe
(С)
Тes
(С)
Комфортность P
(гПа)
Po
(гПа)
Тmin
(С)
Tmax
(С)
R
(мм)
R24
(мм)
S
(см)
21 11.02 СВ 1 н/о н/о +23.9 +23.9 100 +33 +33 очень
душно
1013.6
00 12.02 штиль 0 30 км {дождь} 6/6 600 м
[Cu med, cong]
+24.0 +24.0 100 +33 +33 очень
душно
1013.1 1011.6 0.2
03 12.02 Ю 1 40 км 9/4 600 м
[Cu Sc Ac trans]
+23.1 +23.1 100 +32 +32 очень
душно
1014.1 1012.9 42
06 12.02 Ю 2 40 км 9/9 600 м
[Cu med, cong]
+28.0 +26.2 90 +42 +44 опасность
перегрева
1015.1 1014.0 +23.1 +31.8 42
09 12.02 СВ 2 40 км 5/5 600 м
[Cu med, cong]
+30.6 +25.3 73 +44 +55 опасность
перегрева
1014.0 1012.9
12 12.02 С 2 40 км 5/5 600 м
[Cb cap]
+32.0 +25.4 68 +46 +51 опасность
перегрева
1011.4 1010.3
15 12.02 З 1 40 км {морось} 5/5 600 м
[Cu med, cong]
+30.4 +24.8 72 +43 +43 опасность
перегрева
1011.4 +32.0
18 12.02 ЮЗ 1 35 км 5/5 600 м
[Cu med, cong]
+24.8 +24.8 100 +35 +35 очень
душно
1013.4 1013.5 +32.4
21 12.02 Ю 1 н/о н/о +25.1 +25.1 100 +36 +36 очень
душно
1013.3
00 13.02 Ю 1 35 км 3/3 600 м
[Cu med, cong Ac trans]
+24.6 +24.6 100 +34 +34 очень
душно
1012.7 1011.5
03 13.02 штиль 0 40 км 4/3 600 м
[Cu med, cong Ac trans]
+24.7 +24.7 100 +35 +35 очень
душно
1013.3 1012.2
06 13.02 СВ 1 40 км 5/4 600 м
[Cu med, cong Ac trans Ci sp]
+29.2 +24.3 75 +41 +41 опасность
перегрева
1015.5 1014.4 +24.5 +32.0
09 13.02 СВ 3 40 км 3/3 600 м
[Cu med, cong]
+30.8 +24.5 69 +43 +56 опасность
перегрева
1014.8 1013.7
12 13.02 С 2 40 км 3/3 600 м
[Cb cap]
+33.1 +24.0 59 +45 +52 опасность
перегрева
1012.1 1011.0
15 13.02 З 1 н/о н/о +29.1 +24.0 74 +40 +40 очень
душно
1011.6
18 13.02 штиль 0 30 км 8/8 600 м
[Cb cap]
+26.8 +25.6 93 +39 +39 очень
душно
1014.1 1013.8 +33.6
21 13.02 СВ 2 н/о н/о +25.8 +25.3 97 +37 +37 очень
душно
1014.0
00 14.02 СВ 1 30 км {гроза} 6/6 600 м
[Cu med, cong]
+25.4 +25.4 100 +37 +37 очень
душно
1013.9 1012.7 0.2
03 14.02 Ю 1 25 км осадки на расстоянии 9/9 600 м
[Cu med, cong]
+25.2 +25.2 100 +36 +36 очень
душно
1014.6 1013.4 3
06 14.02 СВ 1 40 км 9/9 600 м
[Cu Sc]
+28.6 +24.2 77 +40 +41 очень
душно
1015.6 1014.5 +25.3 +33.1 3
09 14.02 С 2 25 км осадки на расстоянии 9/8 600 м
[Cu med, cong Ci sp]
+29.9 +24.9 75 +43 +47 опасность
перегрева
1014.3 1013.2
12 14.02 СЗ 3 40 км 9/6 600 м
[Cu med, cong Ac trans Ci sp]
+30.8 +24.7 70 +44 +46 опасность
перегрева
1012.1 1011.0
15 14.02 З 2 40 км 9/9 600 м
[Cb cap Ac trans Ci sp]
+27.7 +24.3 82 +39 +39 очень
душно
1013.2 1012.1 +30.8
18 14.02 ЮЗ 1 30 км 6/5 600 м
[Cu med, cong Ac trans]
+26.0 +24.8 93 +37 +37 очень
душно
1014.5 1013.9 +31.3
21 14.02 штиль 0 н/о н/о +25.6 +25.6 100 +37 +37 очень
душно
1013.4
00 15.02 Ю 1 30 км 4/4 600 м
[Cu med, cong]
+24.8 +24.8 100 +35 +35 очень
душно
1012.7 1011.4
03 15.02 Ю 1 40 км 9/3 600 м
[Cu med, cong Ci sp]
+23.9 +23.9 100 +33 +33 очень
душно
1013.6 1012.2
06 15.02 ЮВ 1 40 км 9/6 600 м
[Cu med, cong Ci sp]
+30.1 +23.9 69 +41 +46 опасность
перегрева
1014.5 1013.4 +24.0 +30.8
09 15.02 СВ 2 40 км 9/9 600 м
[Cu med, cong]
+30.2 +25.9 78 +45 +47 опасность
перегрева
1012.9 1011.8
12 15.02 З 4 40 км 8/6 600 м
[Cu med, cong Ci sp]
+31.2 +25.5 72 +46 +48 опасность
перегрева
1010.6 1009.5
15 15.02 ЮЗ 1 40 км 9/6 600 м
[Cb cap Ci sp]
+28.6 +25.6 84 +42 +42 опасность
перегрева
1012.2 1011.1 +32.2
18 15.02 Ю 1 н/о н/о +26.8 +26.8 100 +42 +42 опасность
перегрева
1013.0 +32.2
21 15.02 Ю 1 н/о н/о +26.7 +26.4 98 +41 +41 опасность
перегрева
1012.6
00 16.02 Ю 1 30 км 9/9 600 м
[Cu Sc]
+25.3 +25.3 100 +36 +36 очень
душно
1012.9 1010.9
03 16.02 СВ 1 25 км гроза без осадков 9/9 600 м
[Cb cap]
+26.3 +24.5 90 +37 +37 очень
душно
1013.6 1012.3 0.3
06 16.02 СВ 1 40 км {гроза} 9/4 600 м
[Cu med, cong Ci sp]
+29.1 +25.3 80 +42 +50 опасность
перегрева
1014.9 1013.8 +26.7 +32.2 0.3
09 16.02 СВ 1 40 км 9/4 600 м
[Cu med, cong Ac trans Ci sp]
+29.0 +25.2 80 +42 +51 опасность
перегрева
1013.2 1012.1
12 16.02 З 2 40 км 9/6 600 м
[Cb cap Ac trans Ci sp]
+31.1 +26.1 75 +47 +49 опасность
перегрева
1011.5 1010.4
15 16.02 СЗ 3 40 км 9/6 600 м
[Cb cap Ac trans Ci sp]
+29.2 +25.4 80 +43 +43 опасность
перегрева
1012.1 1011.0 +31.1
18 16.02 СВ 1 35 км н/о +23.9 +23.2 96 +32 +32 очень
душно
1013.3 1014.6 +31.9 2
21 16.02 В 1 н/о н/о +25.5 +25.3 99 +37 +37 очень
душно
1013.4
00 17.02 СВ 1 35 км 4/3 600 м
[Cu med, cong Ci sp]
+25.6 +24.7 95 +36 +36 очень
душно
1012.1 1011.1
03 17.02 Ю 1 40 км 5/3 600 м
[Cu med, cong Ci sp]
+23.5 +23.5 100 +32 +32 очень
душно
1012.7 1011.5
06 17.02 СВ 1 40 км 5/3 600 м
[Cu med, cong Ci sp]
+29.6 +24.7 75 +42 +42 опасность
перегрева
1014.2 1013.2 +23.5 +31.1
09 17.02 СВ 1 н/о н/о +30.9 +24.3 68 +43 +43 опасность
перегрева
1012.1
12 17.02 З 1 н/о н/о +31.0 +24.9 70 +44 +44 опасность
перегрева
1010.1
15 17.02 СЗ 1 40 км 5/4 600 м
[Cb cap Ci sp]
+29.3 +24.7 76 +42 +42 опасность
перегрева
1011.6 1010.5 +32.2
18 17.02 Ю 1 н/о н/о +26.7 +25.1 91 +38 +38 очень
душно
1012.4 +33.0
21 17.02 Ю 1 н/о н/о +24.7 +24.7 100 +35 +35 очень
душно
1011.6
00 18.02 СВ 1 30 км 8/5 600 м
[Cu med, cong Ac trans]
+27.1 +23.6 81 +37 +37 очень
душно
1011.3 1010.3
03 18.02 СВ 1 40 км 5/3 600 м
[Cu med, cong Ci sp]
+25.3 +24.6 96 +36 +36 очень
душно
1011.8 1010.7
06 18.02 СВ 2 н/о н/о +29.9 +24.8 74 +43 +43 опасность
перегрева
1012.7 1011.7 +24.7 +32.2
09 18.02 СВ 3 40 км 3/1 600 м
[Cu med, cong Ci sp]
+31.6 +24.4 66 +44 +60 опасность
перегрева
1011.5 1010.4
12 18.02 С 4 40 км 3/3 600 м
[Cb cap Ci sp]
+33.0 +24.2 60 +45 +50 опасность
перегрева
1008.4 1007.3
15 18.02 С 1 40 км 6/5 600 м
[Cb cap Ci sp]
+28.9 +25.1 80 +42 +42 опасность
перегрева
1008.7 1007.6 +33.0
18 18.02 штиль 0 н/о н/о +26.6 +25.9 96 +40 +40 очень
душно
1009.6 +33.6

 

Местоположение метеостанции Аэропорт Fascene (Мадагаскар): широта -13.31 долгота 48.32 высота над уровнем моря 9 м.

В архиве по умолчанию представлена погода в Аэропорту Fascene за последнюю неделю. Архивные данные за месяц целиком и за предыдущие месяцы, начиная с января 2011 года, Вы можете получить, выбрав интересующий диапазон дат из раскрывающегося списка и нажав кнопку "Ввод!".


*Определитесь, кто Вы:
робот инопланетянин человек

Внимание! Время в таблицах - всемирное. Для получения местного времени необходимо прибавить поправку, которая равна 3 ч.

Смотрите также архив погоды в соседних городах и на ближайших метеорологических станциях:

Погода в Анциранане (Мадагаскар) (151 км)
Погода в Анцухихи (Мадагаскар) (178 км)
Погода в Самбаве (Мадагаскар) (227 км)
Погода на Острове Глорьёз (Реюньон) (235 км)
Погода в Анталахе (Мадагаскар) (272 км)
Погода в Дзаудзи (Коморские Острова) (334 км)
Погода в Махадзанге (Мадагаскар) (337 км)
Погода на Нуси Бураха (Мадагаскар) (449 км)
Погода в Амбоайтзилаозане (Мадагаскар) (481 км)
Погода в Туамасине (Мадагаскар) (546 км)

Пояснения к столбцам:

Ветер - указаны скорость ветра в м/с - средняя за 10 мин, порывы в срок и между сроками (в фигурных скобках) и направление, откуда дует ветер: С - северный, СВ - северо-восточный, В - восточный, ЮВ - юго-восточный, Ю - южный, ЮЗ - юго-западный, З - западный, СЗ - северо-западный.
Видимость - горизонтальная дальность видимости в метрах или километрах. При видимости от 1 до 10 км при отсутствии осадков обычно наблюдается дымка, при ухудшении видимости до 1 км и менее - туман. В сухую погоду видимость может ухудшаться дымом, пылью или мглою.
Явления - указаны атмосферные явления, наблюдавшиеся в срок или в последний час перед сроком; фигурными скобками обозначены явления, наблюдавшиеся между сроками (за 1-3 часа до срока); квадратными скобками обозначены град или гололедные отложения с указанием их диаметра в мм.
Облачность - указаны через наклонную черту общая и нижняя облачность в баллах и высота нижней границы облаков в метрах; квадратными скобками обозначены формы облаков: Ci - перистые, Cs - перисто-слоистые, Cc - перисто-кучевые, Ac - высококучевые, As - высокослоистые, Sc - слоисто-кучевые, Ns - слоисто-дождевые, Cu - кучевые, Cb - кучево-дождевые. Подробнее классификацию облаков см. в Атласе облаков (PDF).
T - Температура воздуха - температура, измеренная на высоте 2 м над землей.
Td - Температура точки росы - температура, при понижении до которой содержащийся в воздухе водяной пар достигнет насыщения.
f - Относительная влажность воздуха - влажноcть воздуха, измеренная на высоте 2 м над землей.
Te - Эффективная температура - температура, которую ощущает одетый по сезону человек в тени. Характеристика душности погоды. При расчете учитывается влияние влажности воздуха и скорости ветра на теплоощущения человека.
Tes - Эффективная температура на солнце - температура, которую ощущает человек, с поправкой на солнечный нагрев. Характеристика знойности погоды. Зависит от высоты солнца над горизонтом, облачности и скорости ветра. Ночью, в пасмурную погоду, а также при ветре 12 м/с и более поправка равна нулю.
P - Атмосферное давление - приведенное к уровню моря атмосферное давление.
Po - Атмосферное давление - измеренное на уровне метеостанции атмосферное давление.
Tmin - Минимальная температура - минимум температуры воздуха на высоте 2 м над землей.
Tmax - Максимальная температура - максимум температуры воздуха на высоте 2 м над землей.
R - Количество осадков - Количество выпавших осадков за период времени, мм. При наведении курсора мыши на число - период времени, за который выпало указанное количество осадков.
R24 - Количество осадков - Количество выпавших осадков за 24 часа, мм.
S - Снежный покров - Высота снежного покрова, см. При наведении курсора мыши на число - состояние снежного покрова и степень покрытия местности в баллах.